When you browse on this site, cookies collect data to enhance your experience and personalize the content and advertising you see.
Visit our Privacy Policy to learn more. By continuing to use the site, you agree to this use of cookies and data.
  • In Switzerland
  • List of Countries
  • For 7 days
  • Water Temperature
  • Weather Map
  • Weather Widgets
  • user-avatar
    Login

    Hourly Weather Chalons-en-Champagne

    Today, 28 January, Tuesday

    Time Temperature Precipitation Wind Pressure Humidity
    00:00 +5°C° 0 mm 8 mps 743 mmHg 83%
    01:00 +5°C° 0.1 mm 8 mps 742 mmHg 85%
    02:00 +5°C° 0.1 mm 8 mps 742 mmHg 86%
    03:00 +5°C° 0.1 mm 7 mps 741 mmHg 88%
    04:00 +5°C° 1 mm 8 mps 741 mmHg 84%
    05:00 +5°C° 1 mm 9 mps 741 mmHg 81%
    06:00 +5°C° 1 mm 9 mps 740 mmHg 77%
    07:00 +3°C° 0.2 mm 9 mps 741 mmHg 77%
    08:00 +3°C° 0.2 mm 9 mps 742 mmHg 76%
    09:00 +2°C° 0.2 mm 9 mps 743 mmHg 76%
    10:00 +3°C° 0.2 mm 9 mps 744 mmHg 74%
    11:00 +3°C° 0.2 mm 10 mps 744 mmHg 72%
    12:00 +3°C° 0.2 mm 10 mps 745 mmHg 70%
    13:00 +3°C° 0.2 mm 9 mps 745 mmHg 69%
    14:00 +4°C° 0.2 mm 8 mps 745 mmHg 69%
    15:00 +4°C° 0.2 mm 8 mps 745 mmHg 69%
    16:00 +3°C° 0.2 mm 7 mps 746 mmHg 73%
    17:00 +3°C° 0.2 mm 7 mps 746 mmHg 76%
    18:00 +2°C° 0.2 mm 6 mps 746 mmHg 79%
    19:00 +2°C° 0.1 mm 6 mps 746 mmHg 82%
    20:00 +2°C° 0.1 mm 7 mps 746 mmHg 85%
    21:00 0°C° 0.1 mm 7 mps 746 mmHg 88%
    22:00 +2°C° 0.1 mm 6 mps 747 mmHg 87%
    23:00 +2°C° 0.1 mm 6 mps 748 mmHg 86%

    Tomorrow, 29 January, Wednesday

    Time Temperature Precipitation Wind Pressure Humidity
    00:00 +2°C° 0.1 mm 6 mps 748 mmHg 84%
    01:00 +1°C° 0.1 mm 6 mps 749 mmHg 84%
    02:00 +1°C° 0.1 mm 5 mps 749 mmHg 85%
    03:00 +1°C° 0.1 mm 5 mps 749 mmHg 85%
    04:00 +1°C° 0 mm 5 mps 750 mmHg 85%
    05:00 +1°C° 0 mm 5 mps 750 mmHg 86%
    06:00 +1°C° 0 mm 5 mps 751 mmHg 87%
    07:00 +1°C° 0 mm 6 mps 751 mmHg 86%
    08:00 +1°C° 0 mm 6 mps 752 mmHg 86%
    09:00 +2°C° 0 mm 7 mps 752 mmHg 86%
    10:00 +3°C° 0.1 mm 6 mps 753 mmHg 82%
    11:00 +3°C° 0.1 mm 6 mps 753 mmHg 78%
    12:00 +4°C° 0.1 mm 6 mps 753 mmHg 75%
    13:00 +4°C° 0.1 mm 6 mps 754 mmHg 75%
    14:00 +5°C° 0.1 mm 5 mps 754 mmHg 76%
    15:00 +6°C° 0.1 mm 4 mps 754 mmHg 76%
    16:00 +5°C° 0 mm 4 mps 754 mmHg 81%
    17:00 +4°C° 0 mm 3 mps 754 mmHg 85%
    18:00 +3°C° 0 mm 3 mps 755 mmHg 90%
    19:00 +3°C° 0 mm 3 mps 755 mmHg 90%
    20:00 +2°C° 0 mm 3 mps 755 mmHg 90%
    21:00 +2°C° 0 mm 3 mps 755 mmHg 91%
    22:00 +2°C° 0 mm 3 mps 755 mmHg 91%
    23:00 +2°C° 0 mm 3 mps 755 mmHg 92%

    Day after tomorrow, 30 January, Thursday

    Time Temperature Precipitation Wind Pressure Humidity
    00:00 +2°C° 0 mm 3 mps 755 mmHg 93%
    01:00 +2°C° 0 mm 3 mps 754 mmHg 93%
    02:00 +2°C° 0 mm 3 mps 754 mmHg 93%
    03:00 +2°C° 0 mm 3 mps 754 mmHg 94%
    04:00 +1°C° 0 mm 4 mps 753 mmHg 93%
    05:00 +3°C° 0 mm 4 mps 752 mmHg 92%
    06:00 +3°C° 0 mm 4 mps 752 mmHg 92%
    07:00 +4°C° 0 mm 4 mps 751 mmHg 89%
    08:00 +4°C° 0 mm 4 mps 751 mmHg 86%
    09:00 +5°C° 0 mm 5 mps 751 mmHg 83%
    10:00 +5°C° 0.1 mm 5 mps 750 mmHg 85%
    11:00 +6°C° 0.1 mm 5 mps 750 mmHg 88%
    12:00 +6°C° 0.1 mm 5 mps 749 mmHg 91%
    13:00 +7°C° 0.4 mm 6 mps 749 mmHg 93%
    14:00 +8°C° 0.4 mm 6 mps 748 mmHg 94%
    15:00 +8°C° 0.4 mm 6 mps 747 mmHg 96%
    16:00 +9°C° 0.3 mm 6 mps 748 mmHg 96%
    17:00 +10°C° 0.3 mm 6 mps 748 mmHg 95%
    18:00 +10°C° 0.3 mm 6 mps 748 mmHg 95%
    19:00 +11°C° 0.1 mm 6 mps 748 mmHg 94%
    20:00 +11°C° 0.1 mm 6 mps 749 mmHg 94%
    21:00 +11°C° 0.1 mm 6 mps 749 mmHg 94%
    22:00 +11°C° 0 mm 6 mps 750 mmHg 94%
    23:00 +10°C° 0 mm 5 mps 750 mmHg 94%

    31 January, Friday

    Time Temperature Precipitation Wind Pressure Humidity
    00:00 +10°C° 0 mm 5 mps 751 mmHg 94%
    01:00 +11°C° 0 mm 4 mps 751 mmHg 95%
    02:00 +11°C° 0 mm 4 mps 751 mmHg 95%
    03:00 +10°C° 0 mm 3 mps 752 mmHg 96%
    04:00 +10°C° 0 mm 3 mps 752 mmHg 96%
    05:00 +10°C° 0 mm 3 mps 752 mmHg 96%
    06:00 +9°C° 0 mm 3 mps 752 mmHg 96%
    07:00 +10°C° 0 mm 3 mps 752 mmHg 95%
    08:00 +10°C° 0 mm 3 mps 752 mmHg 94%
    09:00 +10°C° 0 mm 3 mps 753 mmHg 94%
    10:00 +10°C° 0 mm 4 mps 753 mmHg 93%
    11:00 +11°C° 0 mm 4 mps 752 mmHg 91%
    12:00 +11°C° 0 mm 4 mps 752 mmHg 90%
    13:00 +10°C° 0 mm 5 mps 752 mmHg 90%
    14:00 +12°C° 0 mm 5 mps 752 mmHg 90%
    15:00 +12°C° 0 mm 5 mps 752 mmHg 90%
    16:00 +12°C° 0 mm 5 mps 751 mmHg 90%
    17:00 +12°C° 0 mm 5 mps 751 mmHg 91%
    18:00 +12°C° 0 mm 5 mps 751 mmHg 91%
    19:00 +12°C° 0 mm 5 mps 751 mmHg 92%
    20:00 +10°C° 0 mm 5 mps 751 mmHg 93%
    21:00 +10°C° 0 mm 5 mps 751 mmHg 93%
    22:00 +10°C° 0 mm 5 mps 751 mmHg 93%
    23:00 +10°C° 0 mm 5 mps 750 mmHg 93%

    1 February, Saturday

    Time Temperature Precipitation Wind Pressure Humidity
    00:00 +11°C° 0 mm 6 mps 750 mmHg 94%
    01:00 +11°C° 0.6 mm 6 mps 750 mmHg 94%
    02:00 +11°C° 0.6 mm 6 mps 749 mmHg 94%
    03:00 +11°C° 0.6 mm 6 mps 749 mmHg 94%
    04:00 +11°C° 0.4 mm 6 mps 749 mmHg 94%
    05:00 +11°C° 0.4 mm 6 mps 749 mmHg 93%
    06:00 +11°C° 0.4 mm 6 mps 749 mmHg 92%
    07:00 +11°C° 0.1 mm 6 mps 749 mmHg 91%
    08:00 +11°C° 0.1 mm 6 mps 750 mmHg 90%
    09:00 +11°C° 0.1 mm 6 mps 750 mmHg 88%
    10:00 +11°C° 0.2 mm 7 mps 751 mmHg 85%
    11:00 +11°C° 0.2 mm 7 mps 751 mmHg 82%
    12:00 +11°C° 0.2 mm 7 mps 752 mmHg 79%
    13:00 +11°C° 0.6 mm 7 mps 752 mmHg 78%
    14:00 +11°C° 0.6 mm 7 mps 753 mmHg 77%
    15:00 +11°C° 0.6 mm 7 mps 753 mmHg 76%
    16:00 +10°C° 0 mm 5 mps 754 mmHg 79%
    17:00 +10°C° 0 mm 4 mps 755 mmHg 82%
    18:00 +9°C° 0 mm 3 mps 755 mmHg 85%
    19:00 +9°C° 0 mm 3 mps 756 mmHg 87%
    20:00 +8°C° 0 mm 3 mps 756 mmHg 90%
    21:00 +8°C° 0 mm 3 mps 757 mmHg 92%
    22:00 +7°C° 0 mm 4 mps 757 mmHg 93%
    23:00 +7°C° 0 mm 4 mps 757 mmHg 94%

    2 February, Sunday

    Time Temperature Precipitation Wind Pressure Humidity
    00:00 +7°C° 0 mm 4 mps 757 mmHg 94%
    01:00 +7°C° 0 mm 4 mps 756 mmHg 94%
    02:00 +7°C° 0 mm 5 mps 756 mmHg 94%
    03:00 +7°C° 0 mm 5 mps 755 mmHg 94%
    04:00 +7°C° 0 mm 6 mps 755 mmHg 94%
    05:00 +8°C° 0 mm 7 mps 754 mmHg 94%
    06:00 +9°C° 0 mm 7 mps 754 mmHg 94%
    07:00 +9°C° 0.7 mm 8 mps 753 mmHg 93%
    08:00 +10°C° 0.7 mm 8 mps 753 mmHg 92%
    09:00 +10°C° 0.7 mm 9 mps 753 mmHg 92%
    10:00 +11°C° 0.2 mm 9 mps 753 mmHg 90%
    11:00 +12°C° 0.2 mm 9 mps 753 mmHg 88%
    12:00 +12°C° 0.2 mm 9 mps 753 mmHg 86%
    13:00 +12°C° 0.2 mm 9 mps 753 mmHg 86%
    14:00 +12°C° 0.2 mm 9 mps 753 mmHg 85%
    15:00 +12°C° 0.2 mm 8 mps 753 mmHg 85%
    16:00 +12°C° 0.1 mm 8 mps 753 mmHg 85%
    17:00 +12°C° 0.1 mm 7 mps 753 mmHg 85%
    18:00 +12°C° 0.1 mm 7 mps 753 mmHg 85%
    19:00 +12°C° 0.1 mm 7 mps 753 mmHg 87%
    20:00 +12°C° 0.1 mm 7 mps 754 mmHg 88%
    21:00 +12°C° 0.1 mm 7 mps 754 mmHg 90%
    22:00 +12°C° 0.1 mm 7 mps 754 mmHg 90%
    23:00 +13°C° 0.1 mm 6 mps 755 mmHg 90%
    Show more